Regional Weather Roundup
Issued by NWS Grand Forks, ND

Home | Current Version | Previous Version | Graphics & Text | Print | Product List | Glossary On
Versions: 1 2 3 4 5 6 7 8 9 10 11 12 13 14 15 16 17 18 19 20 21 22 23 24 25 26 27 28 29 30 31 32 33 34 35 36 37 38 39 40 41 42 43 44 45 46 47 48 49 50
000
ASUS43 KFGF 231910
RWRFGF
PRAIRIE TO PINES  WEATHER ROUNDUP
NATIONAL WEATHER SERVICE EASTERN NORTH DAKOTA/GRAND FORKS ND
100 PM CST THU FEB 23 2017

 **SATELLITE DATA USED TO AUGMENT SKY COVER AT AUTOMATED STATIONS**
 *****  WEATHER ACROSS EASTERN NORTH DAKOTA  *****

CITY           SKY/WX    TMP DP  RH WIND       PRES   REMARKS
GRAND FORKS    CLOUDY    27  16  63 N16       30.07F WCI  15
GRAND FRKS AFB CLOUDY    26  19  74 NE16      30.06F WCI  14
DEVILS LAKE    CLOUDY    25  21  85 NE8       30.05S WCI  16
FARGO          CLOUDY    31  23  72 N16       30.02F WCI  20
WAHPETON ARPT  CLOUDY    30  21  69 N16       30.01S WCI  19
$$

 ***** WEATHER ACROSS CENTRAL AND WESTERN NORTH DAKOTA  *****

CITY           SKY/WX    TMP DP  RH WIND       PRES   REMARKS
BISMARCK       CLOUDY    31  25  78 NE8       30.02S WCI  23
MINOT          CLOUDY    25  16  68 N16       30.08S WCI  12
JAMESTOWN      CLOUDY    30  23  75 NE10      30.01S WCI  21
MINOT AFB      FAIR      24  16  73 N9        30.08F WCI  14
GARRISON         N/A     23  18  81 NE14G21   30.05R WCI  11
WILLISTON      CLOUDY    27  24  89 E9        30.07F WCI  18
DICKINSON      CLOUDY    27  24  89 NE20      29.96S FOG     WCI  13
HETTINGER      CLOUDY    30  24  78 NE10      29.98R WCI  21
$$

 *****  OTHER AIRPORT OBSERVATIONS IN OUR AREA  *****

CITY           SKY/WX    TMP DP  RH WIND       PRES   REMARKS
WALHALLA       NOT AVBL
GRAFTON AIRPOR CLOUDY    23  18  80 N15G21    30.11S WCI  10
VALLEY CITY AR CLOUDY    28  27  93 NE12      30.03S WCI  18
CANDO          NOT AVBL
CAVALIER APRT    N/A     23  16  74 N9        30.10F WCI  13
GWINNER        CLOUDY    30  27  86 N16       30.01S WCI  19
SHEYENNE NWR     N/A     29  20  69 NE14      29.95S WCI  18
ROLLA          CLOUDY    23  18  80 N15       30.05F WCI  10
 ***** THE ABOVE OBSERVATIONS ARE NON NWS ARE NOT QUALITY
       CONTROLLED AND MAY MIS-REPORT RAIN FOR SNOW...
$$

  *****  WEATHER ACROSS NORTHERN MINNESOTA  *****

CITY           SKY/WX    TMP DP  RH WIND       PRES   REMARKS
FLAG ISLAND    FAIR      23  10  58 NW15      30.02S WCI  10
WARROAD        FAIR      23  12  63 NW10G16   30.04F WCI  12
ROSEAU         CLOUDY    25  16  68 NW10      30.04F WCI  15
HALLOCK        CLOUDY    25  18  74 N15       30.08F WCI  12
THF RVR FALLS  CLOUDY    26  17  68 NW16      30.04F WCI  14
BAUDETTE       CLOUDY    22  12  65 N10       30.01F WCI  11
WASKISH        FAIR      27  16  63 N7        30.00F WCI  19
CROOKSTON      CLOUDY    28  21  74 N17       30.06F WCI  16
GREENBUSH NDAW   N/A     23  18  80 NW12        N/A  WCI  12
$$
  *****  WEATHER ACROSS CENTRAL AND WEST MINNESOTA  *****

CITY           SKY/WX    TMP DP  RH WIND       PRES   REMARKS
FOSSTON        CLOUDY    25  18  74 N13       30.02S WCI  13
BEMIDJI        PTSUNNY   26  17  69 N8        29.98F WCI  17
PARK RAPIDS    FAIR      27  17  66 N9        29.96F WCI  18
ELBOW LAKE     CLOUDY    27  22  80 NE14      29.98S WCI  16
WADENA         FAIR      27  19  74 N12       29.96F WCI  16
DETROIT LAKES  CLOUDY    28  23  80 N10G20    29.99F WCI  19
MOORHEAD       CLOUDY    28  21  74 N17       30.03F WCI  16
FERGUS FALLS   PTSUNNY   28  21  74 NE10      30.03F WCI  19
MORRIS MN      FAIR      30  25  80 N14       29.97R WCI  20
STAPLES        FAIR      27  21  80 N9        29.96F WCI  17
$$
  *****  WEATHER ELSEWHERE ACROSS MINNESOTA  *****

CITY           SKY/WX    TMP DP  RH WIND       PRES   REMARKS
DULUTH         CLOUDY    27  22  81 NW9       29.92F WCI  18
INTRNTL FALLS  FAIR      24  10  55 NW12      29.97F WCI  13
ELY            FAIR      28  12  50 NW10G16   29.90S WCI  19
CLOQUET        CLOUDY    27  21  80 N9        29.94S WCI  17
WHEATON        CLOUDY    28  21  74 N13       30.01S WCI  18
BRAINERD       CLOUDY    26  21  81 NW10      29.97F WCI  16
HIBBING        PTSUNNY   24  20  84 NW13      29.94F WCI  12
ALEXANDRIA     PTSUNNY   28  22  78 NE13      29.96S WCI  17
SAINT CLOUD    CLOUDY    29  22  75 N10       29.95F WCI  20
MINNEAPOLIS    PTSUNNY   38  23  55 N17       29.91F
$$

  *****  WEATHER ACROSS SOUTH DAKOTA  *****

CITY           SKY/WX    TMP DP  RH WIND       PRES   REMARKS
SIOUX FALLS    FLURRIES  32  27  81 NE18G25   29.85F WCI  20
BROOKINGS      PTSUNNY   30  23  75 NE17G23   29.87F WCI  18
WATERTOWN      CLOUDY    29  22  75 NE20G26   29.92S WCI  16
HURON          CLOUDY    32  24  72 NE17      29.92F WCI  21
SISSETON         N/A     29  23  78 NE20      29.98S WCI  16
ABERDEEN       CLOUDY    29  20  69 NE16      29.99S WCI  17
MITCHELL       LGT SNOW  32  25  75 NE16      29.89F WCI  21
PIERRE         CLOUDY    32  23  69 NE16      29.92F WCI  21
MOBRIDGE       CLOUDY    33  23  66 NE13      29.95S WCI  24
RAPID CITY     LGT SNOW  26  22  84 NE12      29.89S VSB 1   WCI  16
$$

  *****  SOME WEATHER IN NEARBY STATES *****

CITY           SKY/WX    TMP DP  RH WIND       PRES   REMARKS
GLASGOW MT     CLOUDY    28  22  78 E16       30.06S WCI  16
GREAT FALLS MT CLOUDY    26  22  84 NE13      29.98S WCI  15
CHEYENNE WY    LGT SNOW  21  17  84 NE20G26   29.57F VSB 3/4 WCI   6
SCOTTSBLUFF NE LGT SNOW  25  20  81 NE10      29.69S VSB 3/4 WCI  15
OMAHA NE       CLOUDY    42  34  73 NE20      29.65F
DES MOINES IA  CLOUDY    43  38  82 E13G20    29.70F
DAVENPORT IA   LGT RAIN  47  40  76 NE14      29.75F
CHICAGO IL     CLOUDY    43  35  73 NE17      29.81F
EAU CLAIRE WI  FAIR      40  26  57 NE12      29.87F
LA CROSSE WI   FAIR      44  30  57 N15G23    29.81F
$$

  *****  SOME NATIONAL WEATHER *****

CITY           SKY/WX    TMP DP  RH WIND       PRES   REMARKS
LA GUARDIA NY  FAIR      60  51  72 SW12      29.82F
RALEIGH NC     PTSUNNY   72  50  45 SE6       29.90F
ATLANTA GA     FAIR      74  54  49 S6        29.85F
NEW ORLEANS LA FAIR      75  62  64 SE6       29.79F
OKLAHOMA CITY  FAIR      83  41  22 S17G26    29.44F
ALBUQUERQUE NM FAIR      52   9  17 W23G35    29.73F
SALT LAKE CITY FLURRIES  31  22  69 W12G23    29.81R WCI  22
LOS ANGELES CA FAIR      57  25  29 N12G22    30.09F
BOISE ID       FLURRIES  33  24  69 NW24G32   29.91R WCI  20
SEATTLE WA     LGT RAIN  40  34  79 N7        30.27R
$$

*** WEATHER ACROSS MANITOBA...SASKATCHEWAN AND ONTARIO ***
                ***ONTARIO***

CITY           SKY/WX    TMP DP  RH WIND       PRES   REMARKS
GERALDTON      FLURRIES  19   7  58 NW13G20   29.82S WCI   7
THUNDER BAY    MOSUNNY   32  16  51 NW15G24   29.87F WCI  22
SIOUX LOOKOUT  FLURRIES  18   7  62 NW16G26   29.91F WCI   3
TORONTO        MOSUNNY   63  45  51 W24G30    29.64R
BIG TROUT LK   CLOUDY     3  -6  66 N12G18    29.96  HAZE    WCI -13
PICKLE LAKE    LGT SNOW   7  -2  66 NW9G20    29.88S DRFTSNOWWCI  -7
DRYDEN         SUNNY     21   9  58 W10G18    29.92F WCI  10
KENORA         NOT AVBL
$$
                *** MANITOBA***

CITY           SKY/WX    TMP DP  RH WIND       PRES   REMARKS
BRANDON        MOSUNNY   25  12  58 N8        30.10S WCI  16
DAUPHIN        SUNNY     25  16  68 S3        30.10F
ISLAND LAKE    MOSUNNY    3  -4  72 NW14      30.10S WCI -15
PILOT MOUND      N/A     21  16  79 N3          N/A
THE PAS        MOSUNNY    9  -4  56 N3        30.16S
THOMPSON       MOSUNNY    0  -9  65 N7        30.21S WCI -13
WINNIPEG       FLURRIES  19  12  73 N8        30.12R WCI   9
LYNN LAKE      MOSUNNY    0  -9  65 SE7       30.18F WCI -13
CHURCHILL      MOSUNNY   -6  -9  84 N7        30.31S WCI -20
GILLAM         MOSUNNY    3  -9  55 N6        30.20R WCI  -8
$$
                ***SASKATCHEWAN***

CITY           SKY/WX    TMP DP  RH WIND       PRES   REMARKS
ESTEVAN        PTSUNNY   25  14  63 N6        30.10S WCI  18
KINDERSLEY     CLOUDY    27  16  63 W9        30.08F WCI  17
LLOYDMINSTER   FLURRIES  21  16  79 NW7       30.07F WCI  13
PRINCE ALBERT  MOSUNNY   19   7  58 N7        30.11S WCI  10
REGINA         FLURRIES  28  18  64 NW15      30.08F WCI  17
YORKTON        CLOUDY    25  19  80 NE6       30.05F WCI  18
N. BATTLEFORD  FLURRIES  19  12  73 W6        30.13S WCI  11
LA RONGE       MOSUNNY   10   1  67 CALM      30.13F
SASKATOON      PTSUNNY   23  12  63 NW15      30.13S WCI  10
SWIFT CURRENT  FLURRIES  23  16  74 NW10      30.06F WCI  12
$$
NOTE: THESE ARE AUTOMATED STATIONS WITH LIMITED QUALITY CONTROL
      "FAIR" INDICATES FEW OR NO CLOUDS BELOW 12,000 FEET WITH NO
      SIGNIFICANT WEATHER AND/OR OBSTRUCTIONS TO VISIBILITY.
      SKY/WX - SKY CONDITION AND SIGNIFICANT WEATHER.
      TMP - AIR TEMPERATURE.    DP   - DEWPOINT TEMPERATURE.
      RH  - RELATIVE HUMIDITY.  PRES - PRESSURE.
      HX  - HEAT INDEX.         WCI  - WIND CHILL INDEX.
$



USA.gov is the U.S. government's official web portal to all federal, state and local government web resources and services.